www.pogodaiklimat.ru

Погода и климат >> Архив погоды >> Германия >> Штутгарт аэропорт


АРХИВ ПОГОДЫ в Штутгарт аэропорту

Время (UTC), дата Ветер
(напр.,м/с)
 
Видим.   Явления Облачность Т
(С)
Тd
(С)
f
(%)
Тe
(С)
Тes
(С)
Комфортность P
(гПа)
Po
(гПа)
Тmin
(С)
Tmax
(С)
R
(мм)
R24
(мм)
S
(см)
01 9.06 З 1-2
{3}
70 км 6/0
[Ci fib]
+9.7 +5.4 75 +9 +9 1025.8 978.8
02 9.06 СВ 1-1
{2}
70 км 8/0
[Ci fib]
+9.1 +5.4 78 +9 +9 1025.7 978.6
03 9.06 СЗ 1-1
{3}
70 км 8/0
[Ci fib]
+8.5 +6.0 84 +8 +8 1025.5 978.3
04 9.06 З 2-2
{2}
70 км 5/0
[Ac trans Ci fib]
+9.0 +6.4 84 +7 +7 1025.4 978.3
05 9.06 СЗ 1-2
{3}
60 км 4/0
[Ac trans Ci fib]
+10.7 +7.5 81 +10 +12 1024.4 977.7
06 9.06 В 1 60 км 6/0
[Ac trans Ci fib]
+13.3 +8.6 73 +14 +17 1023.8 977.5 +8.0 +20.4
07 9.06 СВ 1-2
{3}
60 км 9/0
[Ac trans Ci sp]
+15.3 +7.5 60 +16 +22 1023.0 977.1
08 9.06 СВ 2-4
{6}
60 км 9/0
[Ac trans Ci sp]
+17.1 +7.4 53 +17 +25 1022.1 976.5
09 9.06 СВ 2 60 км 9/0
[Ac trans Ci sp]
+18.9 +8.2 50 +20 +31 1021.3 976.0
10 9.06 СВ 2-5
{5}
60 км 9/0
[Ac trans Ci sp]
+21.1 +9.3 47 +22 +35 комфорт 1020.8 975.9
11 9.06 В 2-4
{6}
60 км 9/0
[Ac trans Ci sp]
+21.6 +9.9 47 +23 +36 комфорт 1020.0 975.2
12 9.06 В 2-3
{6}
65 км 10/0
[Ac As]
+22.1 +10.4 47 +24 +30 комфорт 1019.2 974.5
13 9.06 Ю 2-3
{4}
65 км 10/0
[Ac As]
+21.3 +11.7 54 +23 +29 комфорт 1019.4 974.6
14 9.06 Ю 3-5
{5}
40 км слаб. дождь 10/0
[Ac As]
+21.0 +11.1 53 +23 +27 комфорт 1019.4 974.5
15 9.06 Ю 3-6
{8}
30 км слаб. дождь 10/0
[Ac As]
+18.1 +12.7 71 +18 +21 1020.0 974.7 0.1
16 9.06 ЮВ 3-5
{6}
30 км в посл. час дождь туман 9/1 500 м
[Cu Sc Ac As]
+17.7 +14.0 79 +18 +19 1019.2 973.9
17 9.06 ЮВ 3-5
{6}
65 км 9/3 540 м
[Cu Sc Ac As]
+18.2 +13.8 75 +19 +19 1018.7 973.5
18 9.06 ЮВ 2 65 км {дождь} 9/1 500 м
[Cu Sc Ac As]
+18.0 +13.3 74 +19 +19 1018.3 973.1 +13.3 +22.2 0.1
19 9.06 В 3-5
{5}
65 км осадки на расстоянии 9/1 1500 м
[Sc Ac As]
+17.2 +13.9 81 +17 +17 1017.6 972.3
20 9.06 ЮВ 1-2
{5}
60 км слаб. дождь 9/4 1000 м
[Cu Sc Ac As]
+16.7 +13.6 82 +18 +18 1018.7 973.3
21 9.06 В 2-3
{5}
25 км слаб. дождь 10/4 2000 м
[Sc Ac As]
+15.7 +14.1 90 +16 +16 1018.2 972.6 0.4
22 9.06 З 1-2
{3}
50 км в посл. час дождь 10/3 2000 м
[Sc Ac As]
+15.5 +13.8 90 +16 +16 1017.8 972.2
23 9.06 Ю 1-1
{2}
50 км в посл. час дождь 10/3 2000 м
[Sc Ac As]
+15.2 +13.8 91 +16 +16 1017.8 972.2
00 10.06 СВ 1 70 км в посл. час дождь 9/1 2000 м
[Sc Ac As]
+14.0 +12.7 92 +14 +14 1016.9 971.1 0.1
01 10.06 Ю 1-2
{2}
60 км 9/3 2000 м
[Sc Ac As]
+13.9 +12.9 94 +14 +14 1016.8 971.0
02 10.06 В 1-3
{3}
16 км туман на расстоянии 9/1 2000 м
[Sc Ac As]
+13.0 +12.1 94 +13 +13 1016.4 970.5
03 10.06 З 1 12 км слаб. дождь 9/5 1080 м
[Cu Sc Ac As]
+13.4 +12.6 95 +13 +13 1017.1 971.2 0.0
04 10.06 С 1-2
{3}
12 км в посл. час дождь 8/1 30 м
[St Ac As Ci sp]
+13.1 +12.4 96 +13 +13 1016.0 970.1
05 10.06 Ю 1-1
{2}
30 км туман на расстоянии 8/1 30 м
[Cu hum Ac trans]
+13.2 +12.7 97 +13 +14 1015.4 969.6
06 10.06 СЗ 1 30 км {дождь} 8/1 <50 м
[Cu hum Ac trans]
+14.1 +13.3 95 +14 +16 1015.7 970.0 +12.8 +18.0 0.3
07 10.06 Ю 1-1
{2}
20 км 9/1 30 м
[Cu hum Ac trans]
+15.4 +13.7 90 +16 +19 1016.2 970.7
08 10.06 ЮЗ 1-1
{4}
20 км 9/1 300 м
[Cu hum Ac trans]
+16.3 +14.3 88 +17 +22 1016.3 970.9
09 10.06 СВ 3 20 км 9/4 240 м
[Cu hum Ac trans]
+16.7 +14.6 87 +16 +20 1015.4 970.1
10 10.06 СВ 4-6
{6}
30 км в посл. час дождь 8/1 270 м
[Cu hum Ac trans]
+18.0 +15.1 83 +18 +23 1013.5 968.5
11 10.06 СЗ 2-3
{5}
30 км 8/4 500 м
[Cu hum Ac trans]
+19.6 +13.4 67 +22 +28 комфорт 1013.3 968.5
12 10.06 СВ 2 40 км {дождь} 9/1 600 м
[Cu med, cong Ac As]
+19.6 +13.6 68 +22 +28 комфорт 1012.5 967.8 0.0
13 10.06 В 2-2
{3}
45 км слаб. ливневой дождь 9/3 600 м
[Cu med, cong Ac As]
+19.3 +14.2 72 +21 +26 комфорт 1012.6 967.8
14 10.06 ЮВ 1-2
{4}
40 км слаб. ливневой дождь 10/4 600 м
[Cb calv Ac As]
+17.9 +14.9 83 +19 +22 1013.1 968.1
15 10.06 СВ 2-3
{4}
12 км дождь {ливн. осадки} 10/3 600 м
[Cu med, cong As op]
+17.0 +15.8 93 +17 +19 1011.8 966.8 4
16 10.06 СЗ 3-3
{3}
18 км слаб. дождь 10/3 180 м
[Cu med, cong As op]
+17.1 +15.7 91 +17 +18 1012.1 967.1
17 10.06 СЗ 3-5
{5}
25 км слаб. дождь 10/6 210 м
[Cu Sc Ac As]
+16.8 +15.4 91 +17 +17 1012.6 967.5
18 10.06 В 1 15 км слаб. дождь 10/9 210 м
[Cu Sc]
+15.9 +15.2 96 +17 +17 1012.7 967.4 +14.1 +20.2 1
19 10.06 СВ 1-2
{3}
9000 м слаб. дождь 10/5 90 м
[Cu Sc Ac cast]
+16.0 +15.5 97 +17 +17 1012.2 967.0
20 10.06 З 2-3
{3}
7000 м слаб. дождь 10/9 60 м
[Cu Sc]
+16.0 +15.4 96 +16 +16 1012.1 966.9
21 10.06 З 2 9000 м слаб. дождь 10/9 150 м
[Cb calv]
+15.8 +15.2 96 +16 +16 1012.6 967.3 1
22 10.06 З 3 10 км слаб. дождь 9/9 90 м
[Cb calv]
+15.4 +14.3 93 +15 +15 1011.5 966.2
23 10.06 ЮЗ 2-3
{4}
11 км слаб. дождь 10/9 60 м
[Cu Sc]
+15.1 +14.3 95 +15 +15 1011.9 966.5
00 11.06 З 2 12 км дождь 10/4 60 м
[Frnb As op]
+14.7 +13.6 93 +14 +14 1011.6 966.2 2
01 11.06 ЮЗ 2-3
{4}
11 км слаб. дождь 10/4 150 м
[Frnb As op]
+14.0 +13.1 94 +13 +13 1012.5 966.9
02 11.06 ЮЗ 3-5
{5}
12 км дождь 10/1 150 м
[Frnb As op]
+13.5 +12.7 95 +12 +12 1013.3 967.6
03 11.06 ЮЗ 2 12 км дождь 10/4 150 м
[Sc As op]
+13.3 +12.3 94 +12 +12 1013.5 967.7 11
04 11.06 В 1-3
{4}
30 км в посл. час дождь 8/1 90 м
[Cu hum Ac As]
+12.9 +12.3 96 +13 +13 1011.8 966.1
05 11.06 СЗ 2-2
{3}
40 км 9/9 60 м
[Cu Sc]
+13.1 +12.4 96 +12 +12 1012.0 966.3
06 11.06 СЗ 1 20 км {дождь} 9/9 50 м
[Cu Sc]
+13.7 +12.3 91 +14 +14 1012.0 966.4 +12.5 +16.2 1
07 11.06 СЗ 3-5
{5}
20 км 9/9 60 м
[Cu Sc]
+13.4 +12.0 91 +12 +13 1011.7 966.0
08 11.06 С 3-5
{5}
30 км 9/9 60 м
[Cu Sc]
+14.0 +12.2 89 +13 +14 1011.9 966.3
09 11.06 С 3 40 км 9/9 180 м
[Cu Sc]
+15.1 +11.5 79 +14 +16 1011.4 966.0 0.0
10 11.06 С 4-5
{6}
40 км 9/9 360 м
[Cu Sc]
+15.6 +11.7 78 +15 +16 1011.1 965.8
11 11.06 С 3-5
{7}
40 км 9/9 540 м
[Cu Sc]
+15.9 +11.6 76 +15 +17 1011.2 965.9
12 11.06 С 3-5
{7}
60 км 10/10 700 м
[Cu Sc]
+16.0 +11.2 73 +16 +16 1010.9 965.7
13 11.06 СЗ 2-3
{6}
60 км 10/10 700 м
[Cu Sc]
+16.3 +11.5 73 +16 +16 1010.9 965.7
14 11.06 СЗ 2-5
{5}
60 км 10/10 660 м
[Cu Sc]
+16.8 +11.9 73 +17 +17 1010.7 965.6
15 11.06 З 5-6
{7}
50 км 10/10 450 м
[Cu Sc]
+16.0 +12.7 81 +15 +15 1011.0 965.8
16 11.06 З 3-5
{6}
50 км 10/10 450 м
[Cu Sc]
+16.2 +12.5 79 +16 +16 1010.7 965.5
17 11.06 З 3-4
{4}
40 км 10/10 450 м
[Cu Sc]
+16.3 +12.6 79 +16 +16 1010.2 965.1
18 11.06 З 2 35 км 10/10 450 м
[Cu Sc]
+16.4 +12.2 76 +17 +17 1011.1 965.9 +13.2 +16.9
19 11.06 ЮЗ 2-2
{4}
40 км 10/10 450 м
[Cu Sc]
+15.9 +12.5 80 +16 +16 1010.9 965.7
20 11.06 З 1-2
{3}
35 км 10/10 720 м
[Sc]
+15.7 +12.8 83 +16 +16 1011.2 965.9
21 11.06 З 1-1
{4}
35 км 10/10 800 м
[Sc]
+15.9 +12.6 81 +17 +17 1010.3 965.1
22 11.06 ЮВ 1-1
{2}
35 км 10/10 750 м
[Sc]
+15.6 +13.3 86 +16 +16 1009.9 964.7
23 11.06 ЮЗ 1-2
{2}
35 км 9/8 960 м
[Sc]
+14.8 +12.9 88 +15 +15 1010.0 964.6
00 12.06 штиль 0-1
{4}
35 км 9/1 960 м
[Sc Ac trans Cs]
+14.0 +12.5 91 +14 +14 1009.8 964.3
01 12.06 С 1-1
{2}
35 км 9/5 840 м
[Sc Ac trans Cs]
+13.2 +12.2 94 +13 +13 1009.6 964.0
02 12.06 СЗ 1-2
{2}
30 км 9/9 700 м
[Sc]
+13.8 +12.7 93 +14 +14 1009.3 963.8
03 12.06 З 1-1
{2}
17 км 10/10 800 м
[Sc]
+14.2 +12.9 92 +14 +14 1008.6 963.2
04 12.06 З 1-2
{2}
11 км слаб. дождь 9/9 180 м
[Sc]
+14.3 +13.1 92 +15 +15 1007.5 962.2
05 12.06 СВ 1-2
{3}
10 км слаб. дождь 10/5 120 м
[Cu Sc As op]
+14.1 +13.2 94 +14 +14 1007.9 962.5
06 12.06 З 1 8000 м слаб. дождь 10/3 50 м
[Sc As op]
+14.1 +13.4 96 +14 +15 1007.5 962.2 +13.1 +16.4 2
07 12.06 Ю 2-3
{3}
7000 м слаб. дождь 10/9 90 м
[Cu Sc]
+14.1 +13.5 96 +13 +14 1008.8 963.4
08 12.06 З 2-4
{4}
9000 м слаб. дождь 10/9 150 м
[Cu Sc]
+14.8 +13.9 94 +14 +15 1008.8 963.5
09 12.06 ЮЗ 7 4500 м ливневой дождь 10/10 60 м
[Cb calv]
+13.1 +11.9 92 +10 +10 1010.8 965.1 10
10 12.06 ЮЗ 3-5
{9}
20 км слаб. дождь 10/10 180 м
[Cu Sc]
+13.5 +12.2 92 +12 +12 1011.7 966.1
11 12.06 ЮВ 1-2
{4}
30 км в посл. час дождь 9/9 30 м
[Cu Sc]
+13.9 +11.9 88 +14 +16 1011.9 966.3
12 12.06 ЮВ 2-3
{12}
40 км в посл. час дождь {ливн. осадки} 9/9 360 м
[Cu Sc]
+15.5 +12.5 82 +15 +17 1012.2 966.8 0.7
13 12.06 С 3-4
{5}
40 км 9/9 450 м
[Cu med, cong]
+15.4 +12.7 84 +15 +16 1012.4 967.0
14 12.06 СЗ 2-3
{4}
40 км 5/5 540 м
[Cu med, cong]
+17.3 +13.1 76 +18 +24 1011.8 966.7
15 12.06 С 3-5
{5}
40 км 6/6 630 м
[Cu med, cong]
+17.0 +12.8 76 +17 +20 1011.9 966.8
16 12.06 СВ 2-4
{6}
40 км 5/5 600 м
[Cu med, cong]
+17.9 +13.2 74 +18 +21 1011.6 966.6
17 12.06 С 3-4
{4}
40 км 5/5 630 м
[Cu med, cong]
+17.9 +12.8 72 +18 +19 1011.7 966.7
18 12.06 С 2 40 км 4/3 720 м
[Sc diur, vesp Ac trans]
+17.7 +12.2 70 +18 +19 1011.9 966.9 +13.0 +18.1
19 12.06 СВ 2-3
{4}
60 км 6/3 900 м
[Cu Sc Ac lent Ci sp]
+17.0 +12.1 73 +17 +17 1012.4 967.3
20 12.06 С 2-2
{3}
70 км 8/1 870 м
[Cu Sc As trans Ci sp]
+15.7 +12.0 79 +16 +16 1013.2 967.8
21 12.06 штиль 0-1
{4}
70 км 6/0
[Ac As Ci sp]
+14.9 +12.0 83 +15 +15 1013.6 968.1
22 12.06 СЗ 1-2
{2}
60 км 5/1 1500 м
[Sc Ac As Ci sp]
+13.3 +11.0 86 +13 +13 1014.3 968.5
23 12.06 СЗ 2-2
{2}
50 км 6/3 1500 м
[Sc Ac trans Ci sp]
+12.5 +11.0 91 +12 +12 1014.4 968.5
00 13.06 В 1 40 км 9/3 2000 м
[Sc Ac As]
+12.6 +11.8 95 +13 +13 1014.7 968.8
01 13.06 штиль 0-1
{1}
25 км 10/8 1500 м
[Sc Ac As]
+13.2 +12.5 96 +13 +13 1014.7 968.9
02 13.06 З 1-1
{2}
25 км 10/9 1500 м
[Sc]
+13.3 +12.6 96 +13 +13 1014.9 969.1
03 13.06 СЗ 1-1
{2}
35 км 9/6 1500 м
[Sc Ac As]
+13.8 +11.8 88 +14 +14 1014.7 969.0
04 13.06 В 1-1
{2}
30 км 9/6 1500 м
[Cu Sc Ac As]
+13.0 +12.3 96 +13 +13 1015.3 969.4
05 13.06 В 1-1
{2}
30 км 8/5 1500 м
[Cu med, cong Ac trans]
+13.5 +12.9 96 +14 +14 1015.5 969.7
06 13.06 штиль 0 40 км 8/5 1000 м
[Cu med, cong Ac trans]
+14.5 +12.9 90 +14 +16 1015.2 969.6 +12.5 +17.7
07 13.06 ЮЗ 1-2
{2}
40 км 6/3 750 м
[Cu Sc Ac cast]
+16.4 +11.6 73 +17 +21 1015.0 969.6
08 13.06 СВ 1-2
{3}
40 км 8/5 750 м
[Cu Sc Ac trans]
+17.5 +12.4 72 +19 +22 1014.9 969.7
09 13.06 З 1 50 км 8/5 840 м
[Cu Sc Ac trans]
+18.9 +12.9 68 +21 +26 комфорт 1014.6 969.7
10 13.06 СВ 2-3
{4}
50 км 4/4 840 м
[Cb calv Ac trans]
+20.2 +13.2 64 +23 +33 комфорт 1014.2 969.5
11 13.06 В 1-3
{3}
60 км в посл. час гроза 4/4 960 м
[Cu Sc]
+20.9 +11.7 56 +24 +37 комфорт 1013.9 969.3
12 13.06 З 1-2
{4}
60 км {гроза} 4/4 1200 м
[Cu med, cong]
+21.4 +12.1 55 +24 +36 комфорт 1013.5 969.0
13 13.06 СЗ 2-3
{3}
60 км 4/4 1440 м
[Cu med, cong]
+21.9 +11.1 50 +24 +34 комфорт 1013.3 968.8
14 13.06 СЗ 1-3
{4}
60 км 4/4 1500 м
[Cu med, cong]
+22.9 +12.3 51 +26 +35 жарко 1012.9 968.6
15 13.06 СЗ 2-4
{4}
60 км 4/4 1500 м
[Cu med, cong]
+22.6 +11.5 49 +25 +31 комфорт 1012.9 968.6
16 13.06 СЗ 4-6
{6}
60 км 3/3 1500 м
[Cu med, cong]
+23.0 +11.6 49 +25 +28 комфорт 1012.9 968.6
17 13.06 СЗ 4-6
{6}
60 км 1/1 1500 м
[Cu med, cong]
+22.8 +12.0 51 +25 +27 комфорт 1013.3 969.0
18 13.06 С 4 60 км 1/1 1500 м
[Cu med, cong]
+22.2 +12.3 53 +25 +25 комфорт 1013.7 969.3 +14.6 +23.8
19 13.06 С 3-4
{5}
60 км 1/1 1500 м
[Cu med, cong]
+20.8 +12.6 59 +23 +23 комфорт 1014.4 969.7
20 13.06 С 1-3
{3}
60 км 1/1 1200 м
[Cu Sc]
+19.1 +11.9 63 +21 +21 комфорт 1015.2 970.2
21 13.06 СЗ 1-2
{5}
60 км 1/1 1200 м
[Cu Sc Ci fib]
+16.8 +12.0 73 +18 +18 1015.9 970.6
22 13.06 СЗ 1-2
{2}
60 км 1/0
[Ci fib]
+15.3 +11.5 78 +16 +16 1016.4 970.8
23 13.06 СЗ 1-1
{2}
60 км ясно +14.4 +11.8 84 +15 +15 1016.5 970.8
00 14.06 штиль 0-1
{5}
60 км ясно +13.8 +12.2 90 +13 +13 1016.5 970.7
01 14.06 штиль 0-1
{1}
60 км 1/0
[Ci fib]
+12.6 +11.5 93 +12 +12 1016.7 970.7
02 14.06 З 1-1
{1}
60 км 1/0
[Ci fib]
+11.7 +10.2 91 +11 +11 1016.6 970.4
03 14.06 З 1-2
{2}
60 км 1/1 1500 м
[Sc]
+11.1 +9.8 92 +11 +11 1016.7 970.4
04 14.06 З 2-2
{2}
60 км 3/0
[Ac cast Ci sp]
+10.8 +9.6 92 +9 +9 1016.8 970.5
05 14.06 ЮЗ 1-1
{2}
60 км 1/1 450 м
[Cu hum Ac trans Ci fib]
+14.1 +12.9 92 +14 +16 1015.7 970.0
06 14.06 В 1 60 км 1/1 600 м
[Cu hum Ac trans Ci fib]
+17.6 +12.9 74 +19 +22 1015.5 970.3 +10.3 +22.2
07 14.06 СЗ 1-2
{2}
60 км 8/0
[Ac trans Ci fib]
+19.4 +13.2 67 +22 +27 комфорт 1015.4 970.5
08 14.06 СВ 1-2
{2}
60 км 9/0
[Ac trans Cs]
+22.2 +13.2 57 +25 +35 комфорт 1015.2 970.7
09 14.06 СВ 1 60 км 9/0
[Ac As Cs]
+22.9 +13.9 57 +26 +36 жарко 1015.2 970.8
10 14.06 ЮВ 1-2
{3}
60 км 9/0
[Ac As Cs]
+24.3 +13.7 52 +27 +35 жарко 1015.4 971.2
11 14.06 ЮЗ 3-5
{5}
60 км 9/0
[Ac As]
+24.8 +15.2 55 +28 +33 жарко 1015.9 971.8
12 14.06 ЮЗ 4 60 км 9/1 1440 м
[Cu hum Ac As Ci sp]
+25.1 +13.0 47 +27 +33 жарко 1015.7 971.6
13 14.06 ЮЗ 3-4
{7}
60 км 9/1 1500 м
[Cu hum Ac As Ci sp]
+25.9 +12.2 43 +27 +34 жарко 1015.0 971.0
14 14.06 З 4-6
{6}
60 км 9/1 1500 м
[Cu hum Ac As]
+25.4 +11.7 42 +27 +30 жарко 1014.6 970.6
15 14.06 СЗ 4-6
{7}
65 км 9/0
[Ac As]
+24.8 +10.8 41 +26 +29 жарко 1014.1 970.0
16 14.06 СЗ 3-4
{4}
65 км 8/0
[Ac As Ci sp]
+25.1 +13.4 48 +27 +30 жарко 1013.1 969.1
17 14.06 С 5-8
{9}
65 км 8/0
[Ac As Ci sp]
+23.3 +13.4 54 +27 +28 душно 1012.5 968.3
18 14.06 С 4 65 км 9/0
[Ac cast]
+22.0 +12.9 56 +25 +25 комфорт 1012.5 968.1 +17.2 +26.4
19 14.06 С 2-4
{6}
65 км 9/0
[Ac As]
+20.9 +13.2 61 +24 +24 комфорт 1011.8 967.3
20 14.06 СВ 3-4
{4}
65 км 9/0
[Ac As]
+19.7 +12.9 65 +22 +22 комфорт 1011.5 966.8
21 14.06 СЗ 2-2
{6}
65 км 9/0
[Ac As]
+19.8 +13.0 65 +22 +22 комфорт 1011.8 967.1
22 14.06 СЗ 2-2
{3}
65 км 9/0
[Ac As]
+19.1 +13.4 70 +21 +21 комфорт 1011.2 966.4
23 14.06 З 2-3
{3}
65 км 9/1 1500 м
[Sc Ac As]
+18.6 +13.8 74 +20 +20 1010.5 965.7
00 15.06 З 1-2
{6}
65 км 9/0
[As op]
+17.8 +13.8 77 +19 +19 1009.8 964.9
01 15.06 ЮВ 1-1
{2}
65 км 9/0
[As trans Ci sp]
+16.6 +13.5 82 +17 +17 1008.5 963.5
02 15.06 Ю 1-2
{2}
65 км 9/0
[As trans Ci sp]
+17.4 +13.1 76 +18 +18 1007.9 963.0
03 15.06 З 3-4
{4}
55 км 9/0
[Ac As Ci sp]
+15.8 +12.9 83 +15 +15 1008.9 963.7
04 15.06 ЮЗ 6-10
{10}
55 км 4/0
[Ac trans Ci sp]
+18.0 +12.7 71 +17 +18 1010.3 965.4
05 15.06 ЮЗ 2-4
{10}
60 км 4/1 540 м
[Cu hum Ac cast Ci sp]
+17.7 +13.5 76 +18 +19 1012.0 967.0
06 15.06 ЮЗ 3 50 км 5/1 600 м
[Cu hum Ac cast Ci sp]
+18.4 +14.1 76 +19 +21 1012.8 967.9 +15.0 +21.9
07 15.06 Ю 2-3
{5}
55 км 4/1 720 м
[Cu hum Ac cast Ci fib]
+19.9 +14.6 72 +23 +28 комфорт 1013.2 968.5
08 15.06 ЮЗ 4-7
{8}
60 км 8/4 930 м
[Cu med, cong Ac cast Ci sp]
+21.2 +13.9 63 +24 +27 комфорт 1013.9 969.3
09 15.06 ЮЗ 4 70 км 9/4 1080 м
[Cu med, cong Ac lent Ci sp]
+21.5 +13.4 60 +24 +27 комфорт 1014.7 970.1
10 15.06 З 5-8
{9}
70 км 9/4 1170 м
[Cu med, cong Ac lent Ci sp]
+21.6 +13.0 58 +24 +27 комфорт 1014.7 970.2
11 15.06 З 6-8
{8}
70 км 9/5 1230 м
[Cu med, cong Ac lent Ci sp]
+22.4 +12.3 53 +25 +27 комфорт 1015.0 970.5
12 15.06 З 3-5
{9}
70 км 9/5 1350 м
[Cu med, cong Ac trans Ci sp]
+22.8 +12.9 54 +26 +30 жарко 1015.2 970.8
13 15.06 СЗ 5-7
{7}
70 км 8/4 1350 м
[Cu med, cong Ac trans Ci sp]
+22.6 +13.1 55 +26 +29 жарко 1015.1 970.7
14 15.06 З 4-8
{8}
65 км 8/3 1350 м
[Cu med, cong Ci sp]
+23.5 +12.8 51 +26 +31 жарко 1014.9 970.6
15 15.06 СЗ 6-9
{9}
70 км 8/3 1410 м
[Cu med, cong Ci sp]
+22.2 +13.1 56 +25 +27 комфорт 1015.2 970.7
16 15.06 СЗ 6-9
{10}
70 км 6/3 1320 м
[Cu med, cong Ci sp]
+22.5 +12.8 54 +25 +27 комфорт 1014.8 970.4
17 15.06 СЗ 5-7
{8}
>70 км 6/3 1230 м
[Cu Sc Ac trans Ci sp]
+22.0 +12.4 54 +24 +25 комфорт 1015.0 970.5
18 15.06 СЗ 3 >70 км 5/1 1200 м
[Cu Sc Ac trans Ci fib]
+21.5 +12.3 56 +24 +24 комфорт 1015.0 970.4 +18.4 +23.6
19 15.06 СЗ 3-3
{4}
>70 км 5/1 1200 м
[Cu med, cong Ac trans Ci fib]
+20.4 +12.7 61 +23 +23 комфорт 1014.9 970.2
20 15.06 СЗ 4-5
{5}
60 км 4/1 1200 м
[Cu med, cong Ac trans Ci fib]
+18.9 +12.8 68 +20 +20 1015.3 970.3
21 15.06 З 4-6
{6}
60 км 9/3 1200 м
[Cb cap Ac As]
+19.5 +12.5 64 +21 +21 комфорт 1016.3 971.4
22 15.06 Ю 2-4
{5}
35 км ливневой дождь 10/9 1260 м
[Cb cap]
+17.8 +13.8 77 +18 +18 1018.3 973.0
23 15.06 ЮЗ 2-4
{9}
9000 м дождь {ливн. осадки} 10/0
[As op]
+15.5 +14.2 92 +15 +15 1018.9 973.3

 

Местоположение метеостанции Штутгарт аэропорт (Германия): широта 48.68 долгота 9.22 высота над уровнем моря 396 м.

В архиве по умолчанию представлена погода в Штутгарт аэропорту за последнюю неделю. Архивные данные за месяц целиком и за предыдущие месяцы, начиная с января 2011 года, Вы можете получить, выбрав интересующий диапазон дат из раскрывающегося списка и нажав кнопку "Ввод!".


*Определитесь, кто Вы:
робот инопланетянин человек

Внимание! Время в таблицах - всемирное. Для получения местного времени необходимо прибавить поправку, которая равна 1 ч.

Смотрите также архив погоды в соседних городах и на ближайших метеорологических станциях:

Погода в Штутгарте (Германия) (17 км)
Погода в Мюлаккере (Германия) (41 км)
Погода в Кронхютте (Германия) (43 км)
Погода в Штёттен-ам-Ауэрберг (Германия) (48 км)
Погода в Месштеттене (Германия) (58 км)
Погода в Ульм-Мерингене (Германия) (58 км)
Погода в Эрингене (Германия) (64 км)
Погода в Фройденштадте (Германия) (64 км)
Погода в Лаупхайме (Германия) (73 км)
Погода в Вайбштадте (Германия) (73 км)

Пояснения к столбцам:

Ветер - указаны скорость ветра в м/с - средняя за 10 мин, порывы в срок и между сроками (в фигурных скобках) и направление, откуда дует ветер: С - северный, СВ - северо-восточный, В - восточный, ЮВ - юго-восточный, Ю - южный, ЮЗ - юго-западный, З - западный, СЗ - северо-западный.
Видимость - горизонтальная дальность видимости в метрах или километрах. При видимости от 1 до 10 км при отсутствии осадков обычно наблюдается дымка, при ухудшении видимости до 1 км и менее - туман. В сухую погоду видимость может ухудшаться дымом, пылью или мглою.
Явления - указаны атмосферные явления, наблюдавшиеся в срок или в последний час перед сроком; фигурными скобками обозначены явления, наблюдавшиеся между сроками (за 1-3 часа до срока); квадратными скобками обозначены град или гололедные отложения с указанием их диаметра в мм.
Облачность - указаны через наклонную черту общая и нижняя облачность в баллах и высота нижней границы облаков в метрах; квадратными скобками обозначены формы облаков: Ci - перистые, Cs - перисто-слоистые, Cc - перисто-кучевые, Ac - высококучевые, As - высокослоистые, Sc - слоисто-кучевые, Ns - слоисто-дождевые, Cu - кучевые, Cb - кучево-дождевые. Подробнее классификацию облаков см. в Атласе облаков (PDF).
T - Температура воздуха - температура, измеренная на высоте 2 м над землей.
Td - Температура точки росы - температура, при понижении до которой содержащийся в воздухе водяной пар достигнет насыщения.
f - Относительная влажность воздуха - влажноcть воздуха, измеренная на высоте 2 м над землей.
Te - Эффективная температура - температура, которую ощущает одетый по сезону человек в тени. Характеристика душности погоды. При расчете учитывается влияние влажности воздуха и скорости ветра на теплоощущения человека.
Tes - Эффективная температура на солнце - температура, которую ощущает человек, с поправкой на солнечный нагрев. Характеристика знойности погоды. Зависит от высоты солнца над горизонтом, облачности и скорости ветра. Ночью, в пасмурную погоду, а также при ветре 12 м/с и более поправка равна нулю.
P - Атмосферное давление - приведенное к уровню моря атмосферное давление.
Po - Атмосферное давление - измеренное на уровне метеостанции атмосферное давление.
Tmin - Минимальная температура - минимум температуры воздуха на высоте 2 м над землей.
Tmax - Максимальная температура - максимум температуры воздуха на высоте 2 м над землей.
R - Количество осадков - Количество выпавших осадков за период времени, мм. При наведении курсора мыши на число - период времени, за который выпало указанное количество осадков.
R24 - Количество осадков - Количество выпавших осадков за 24 часа, мм.
S - Снежный покров - Высота снежного покрова, см. При наведении курсора мыши на число - состояние снежного покрова и степень покрытия местности в баллах.